CAPE
nan 0 1 1 1 1 0 0 nan nan nan 0 0 0 1 0 0 0 1 1 1 0 0 0 0 0 0 nan nan nan nan nan 0 0 0 0 0 0 0 0 0 0 nan nan nan nan nan nan nan nan nan nan 0 0 8 26 26 42 61 65 65 66 53 35 35 22 15 13 7 7 4 8 14 14 1 1 3 3 24 77 77 105 115 122 122 163
0 0 0 1 1 0 0 0 nan nan nan nan 0 0 0 0 1 1 1 1 1 1 0 1 1 1 1 0 0 0 0 0 0 0 0 0 0 0 0 0 0 0 0 0 0 nan nan nan nan nan nan nan nan nan 1 10 10 22 42 49 49 67 57 46 46 38 31 35 18 18 12 1 nan nan nan 3 18 18 53 80 80 102 111 137 137 177
nan 0 0 0 0 0 nan nan 1 1 nan nan 0 0 1 1 1 1 1 0 0 0 0 1 1 1 1 1 1 1 0 0 0 0 0 1 1 1 1 1 1 1 1 1 1 0 nan nan nan nan nan nan nan nan 0 2 2 3 5 17 17 25 30 34 34 31 36 29 12 12 2 nan nan nan nan 8 47 47 62 91 91 96 118 143 143 198
nan nan 0 0 0 0 nan nan 0 0 0 nan 0 0 1 1 1 1 1 0 0 nan nan 0 0 1 1 0 0 0 0 0 1 1 1 1 1 1 1 1 1 1 1 1 1 1 0 nan nan nan nan nan nan nan nan 0 0 0 0 1 1 2 6 7 7 8 12 1 nan nan nan nan nan nan nan 23 53 53 64 67 67 79 109 158 158 205
nan nan nan 0 0 0 nan nan 0 0 1 1 1 1 1 1 1 1 1 0 0 nan nan 0 0 0 1 1 1 1 1 1 1 1 1 1 1 1 1 1 1 1 1 0 0 1 1 nan nan nan nan nan nan nan nan nan nan nan 0 0 0 0 0 nan nan nan nan nan nan nan nan nan nan nan nan 11 52 52 68 71 71 78 99 156 156 206
8 0 nan nan nan nan nan 0 0 0 0 1 1 1 1 0 0 0 0 2 2 1 1 0 0 1 1 2 0 0 1 1 1 1 1 1 1 1 1 1 1 1 1 0 0 0 0 0 0 nan nan nan nan nan nan nan nan nan nan nan nan nan nan nan nan nan nan nan nan nan nan nan nan nan nan 7 41 41 70 74 74 82 110 135 135 203
29 9 nan nan nan 1 nan 0 0 0 1 0 0 0 0 1 0 0 0 1 1 1 1 1 1 1 1 0 0 0 0 1 0 0 0 1 1 1 1 1 1 1 1 1 1 0 0 0 0 0 nan nan nan nan nan nan nan nan nan nan nan nan nan nan nan nan nan nan nan nan nan nan nan nan nan nan 17 17 80 93 93 104 105 132 132 178
46 33 0 0 0 nan 0 0 0 0 0 0 nan nan nan 0 0 0 0 1 1 0 1 1 1 1 nan nan nan nan nan nan nan nan nan nan nan nan 0 1 1 1 2 1 1 1 0 0 0 nan nan nan nan nan nan nan nan nan nan nan nan nan nan nan nan nan nan nan nan nan nan nan nan nan nan nan nan nan nan 33 33 122 168 157 157 168
38 43 13 1 1 2 4 nan 0 0 1 0 nan nan 0 nan nan nan 0 0 0 0 1 0 0 nan nan nan nan nan nan nan nan nan nan nan nan nan 0 0 0 1 2 2 2 1 1 0 0 nan nan nan nan nan nan nan nan nan nan nan nan nan nan nan nan nan nan nan nan nan nan nan nan nan nan nan nan nan nan nan nan 29 84 117 117 130
39 41 41 24 24 12 19 45 nan nan 0 0 0 0 0 2 0 0 nan nan nan 0 0 1 1 nan 0 nan nan nan nan nan nan nan nan nan nan nan 0 0 0 1 1 2 2 2 1 1 1 0 nan nan nan nan nan nan nan nan nan nan nan nan nan nan nan nan nan nan nan nan nan nan nan nan nan nan nan nan nan nan nan 0 5 34 34 45
38 41 47 44 44 9 0 nan 0 0 0 1 0 0 0 1 1 1 2 3 3 nan 0 1 1 0 nan 0 nan nan nan nan nan nan nan nan 0 0 0 1 1 2 2 2 2 2 2 1 1 1 0 0 nan nan nan nan nan nan nan nan nan nan nan nan nan nan nan nan nan nan nan nan nan nan nan nan nan nan nan nan nan nan 1 4 4 16
52 42 35 31 31 1 nan nan 1 1 1 0 0 0 nan nan 1 1 0 1 1 nan nan 0 0 0 nan nan nan nan nan nan nan nan nan 0 1 1 1 2 2 2 3 2 2 2 2 1 1 1 1 0 nan nan nan nan nan nan nan nan nan nan nan nan nan nan nan nan nan nan nan nan nan nan nan nan nan nan nan nan nan nan nan 3 3 8
54 39 38 37 37 20 5 nan 0 0 0 nan nan nan 0 nan nan nan nan 0 0 1 nan nan nan 0 nan 0 nan nan nan nan nan nan nan 0 1 1 2 3 3 3 4 3 3 3 2 2 2 2 1 1 nan nan nan nan nan nan nan nan nan nan nan nan nan nan nan nan nan nan nan nan nan nan nan nan nan nan nan nan nan nan nan 1 1 6
54 43 41 35 35 35 23 3 nan nan nan nan 1 1 1 nan nan nan nan 0 0 1 nan nan nan nan nan 0 0 0 0 nan 0 0 0 0 0 0 1 2 2 3 4 4 4 4 3 3 3 2 1 1 nan nan nan nan nan nan nan nan nan nan nan nan nan nan nan nan nan nan nan nan nan nan nan nan nan nan nan nan nan nan nan nan nan 3
44 44 44 34 34 40 47 33 31 31 28 8 2 2 nan nan nan nan nan 1 1 nan nan nan nan 3 nan nan 0 0 0 0 2 2 2 1 2 2 1 2 2 4 4 4 4 4 4 5 5 6 3 2 1 1 nan nan nan nan nan nan nan nan nan nan nan nan nan nan nan nan nan nan nan nan nan nan nan nan nan nan nan nan nan nan nan nan
37 45 47 50 50 54 53 44 47 47 39 17 3 3 nan nan nan nan nan nan nan nan nan 0 0 1 3 nan 0 0 0 1 2 2 3 2 2 2 4 3 3 3 3 4 4 5 7 10 10 8 5 0 nan nan nan nan nan nan nan nan nan nan nan nan nan nan nan nan nan nan nan nan nan nan nan nan nan nan nan nan nan nan nan nan nan nan
40 50 57 61 61 57 55 50 45 45 35 20 10 10 1 nan nan nan nan nan nan nan nan nan nan nan 0 nan nan nan 1 1 3 3 3 2 nan nan 3 4 4 3 4 4 4 5 7 9 9 8 5 nan nan nan nan nan nan nan nan nan nan nan nan nan nan nan nan nan nan nan nan nan nan nan nan nan nan nan nan nan nan nan nan nan nan nan
35 46 59 61 61 48 56 45 34 34 39 25 10 10 2 1 nan nan nan nan nan nan nan 0 0 nan 1 0 nan nan 2 1 3 3 2 2 nan nan nan 3 3 3 4 5 5 6 8 9 9 9 3 nan nan nan nan nan nan nan nan nan nan nan nan nan nan nan nan nan nan nan nan nan nan nan nan nan nan nan nan nan nan nan nan nan nan nan
35 42 57 57 57 63 73 54 41 41 47 35 15 15 5 1 nan nan nan nan nan nan nan nan nan nan nan 2 nan nan 1 1 2 2 2 2 1 1 0 0 0 4 4 5 5 8 11 11 11 5 nan nan nan nan nan nan nan nan nan nan nan nan nan nan nan nan nan nan nan nan nan nan nan nan nan nan nan nan nan nan nan nan nan nan nan nan
35 40 54 62 62 74 84 77 63 63 55 37 26 26 15 4 nan nan nan nan nan nan nan nan nan nan nan 3 nan nan 1 2 1 1 2 2 0 0 0 1 1 4 3 6 6 10 2 7 7 4 nan nan nan nan nan nan nan nan nan nan nan nan nan nan nan nan nan nan nan nan nan nan nan nan 0 0 0 0 nan nan nan nan nan nan nan nan
35 36 35 52 52 74 91 99 101 101 61 41 37 37 23 9 3 3 nan nan nan nan nan 0 0 nan 0 nan nan nan 0 1 1 1 1 3 nan nan 0 1 1 5 3 8 8 2 nan nan nan 2 0 nan nan nan nan nan nan nan nan nan nan nan nan nan nan nan nan nan nan nan nan nan nan nan 0 0 0 0 nan nan nan nan nan nan nan nan
30 24 24 44 44 67 78 71 63 63 59 41 14 14 20 15 8 8 2 nan nan nan nan 0 0 1 1 4 nan nan 0 0 nan nan 1 2 nan nan 1 1 1 5 4 3 3 nan nan nan nan nan 2 nan nan nan nan nan nan nan nan nan nan nan nan nan nan nan nan 0 0 0 0 nan nan nan 0 0 0 0 nan nan nan nan nan nan nan nan
24 19 29 45 45 58 65 66 61 61 74 39 14 14 24 33 16 16 5 nan nan nan nan nan nan nan nan nan nan nan 1 0 nan nan 1 2 2 2 0 1 1 3 3 6 6 nan nan nan nan nan nan 0 nan nan nan nan nan nan nan nan nan nan nan nan nan nan 0 0 0 0 0 0 nan nan 0 0 nan nan nan nan nan nan nan nan nan nan
20 19 25 27 27 40 55 70 66 66 36 20 14 14 14 12 8 8 2 0 0 nan nan nan nan nan nan nan 1 1 1 1 1 1 3 2 nan nan 0 1 1 2 4 nan nan 0 nan nan nan nan nan nan nan nan nan nan nan nan nan nan nan nan nan nan nan nan 0 0 0 0 0 0 nan nan nan nan nan nan nan nan nan nan nan nan nan nan
22 20 16 24 24 38 59 84 79 79 48 10 1 1 nan nan 0 0 nan nan nan nan nan nan nan nan 0 0 0 0 1 2 3 3 5 4 nan nan 0 2 2 2 1 nan nan 0 nan nan nan nan nan nan nan nan nan nan nan nan nan nan nan nan nan nan nan nan 0 1 1 1 1 1 0 0 nan 0 nan nan nan nan nan nan nan nan nan nan
23 22 22 24 24 34 44 47 74 74 79 51 10 10 5 2 nan nan nan nan nan nan 0 0 0 0 2 1 0 0 0 1 3 3 5 3 0 0 nan 2 2 1 1 nan nan 0 nan nan nan nan nan nan 0 0 nan nan nan nan nan nan nan nan nan nan nan nan 0 1 1 1 1 1 0 0 nan nan nan nan nan nan nan nan nan nan nan nan
27 25 29 30 30 33 41 51 60 60 69 80 59 59 23 8 1 1 nan nan nan nan nan 0 0 2 5 2 3 3 0 0 2 2 5 5 nan nan nan 0 0 2 0 nan nan nan 0 nan nan nan nan nan nan nan nan nan nan nan nan nan nan nan nan nan nan 0 1 1 1 1 1 1 0 0 nan nan nan nan nan nan nan nan nan nan nan nan
19 19 23 24 24 24 35 57 69 69 76 87 89 89 58 20 14 14 8 1 1 nan nan 0 0 1 3 1 2 2 0 0 1 1 4 7 0 0 0 0 0 3 nan nan nan nan 0 nan nan nan nan nan nan nan nan nan nan nan nan nan nan nan nan 0 0 1 1 1 1 1 1 1 0 0 nan nan nan nan nan nan nan nan nan nan nan nan
8 13 18 20 20 31 56 84 86 86 78 76 84 84 63 27 30 30 43 24 24 0 nan nan nan 1 4 5 nan nan nan 0 1 1 2 4 4 4 nan 1 1 2 nan nan nan 1 0 0 0 0 nan nan nan nan nan nan nan nan nan nan nan nan nan 0 0 1 2 1 1 1 1 1 1 1 0 nan nan nan nan nan nan nan nan nan nan nan
15 23 31 45 45 61 63 74 69 69 58 53 67 67 78 35 24 24 29 8 8 4 2 0 0 2 0 nan nan nan nan 0 1 1 1 4 nan nan nan 1 1 1 nan nan nan 0 0 0 0 nan nan nan nan nan nan 0 0 nan nan nan nan nan 0 1 1 1 2 2 2 2 2 2 1 1 0 nan nan nan nan nan nan nan nan nan nan nan
46 51 45 44 44 44 45 50 44 44 40 35 40 40 87 73 35 35 38 nan nan 3 4 1 1 6 1 nan nan nan nan 0 nan nan 0 2 nan nan nan 1 1 1 0 nan nan nan nan 0 0 nan nan 0 nan nan nan nan nan nan nan nan nan 1 1 0 0 1 1 2 2 2 2 2 1 1 1 nan nan nan nan nan nan nan nan nan nan nan
41 26 18 13 13 19 17 21 33 33 40 39 35 35 33 40 56 56 89 83 83 27 2 3 3 6 4 4 2 2 0 nan nan nan nan 0 0 0 nan 1 1 1 0 2 2 2 1 nan nan nan nan nan nan nan nan nan nan nan nan nan nan nan nan 1 1 2 2 4 3 3 2 2 2 2 1 1 0 0 0 1 1 nan nan nan nan nan
45 28 20 15 15 14 11 15 19 19 25 36 44 44 41 41 42 42 52 73 73 104 55 17 17 13 10 16 9 9 nan nan nan nan nan 0 nan nan nan 0 0 0 0 nan nan nan nan nan nan nan nan nan nan nan nan nan nan nan nan nan nan nan 0 2 2 1 2 3 4 4 5 3 3 3 2 1 1 1 1 1 1 nan nan nan nan nan
27 21 17 12 12 7 5 9 10 10 10 17 36 36 49 59 51 51 51 64 64 107 73 58 58 42 25 23 20 20 4 nan nan nan nan 0 0 0 0 0 0 0 0 nan nan nan nan nan nan nan nan nan nan nan nan nan nan nan nan nan nan nan nan nan nan nan 0 0 nan nan 2 4 8 8 5 3 3 3 3 2 2 nan nan nan nan nan
17 12 7 6 6 3 2 2 1 1 1 3 15 15 45 75 73 73 60 69 69 97 94 68 68 54 37 29 38 38 86 nan nan nan nan 0 nan nan nan 0 0 0 0 nan nan nan nan nan nan nan nan nan nan nan nan nan nan nan nan nan nan nan nan nan nan nan nan nan nan nan nan 1 4 4 5 5 5 5 5 3 3 0 nan nan nan nan
23 12 11 7 7 6 4 4 2 2 2 0 3 3 28 67 81 81 78 99 99 113 119 114 114 92 58 53 61 61 79 nan nan nan nan nan nan nan nan nan nan 0 0 nan nan 0 nan nan nan nan nan nan nan nan nan nan nan nan nan nan nan nan nan nan nan nan nan nan nan nan nan nan 2 2 4 7 7 7 7 6 6 2 nan nan nan nan
7 8 19 12 12 8 6 5 4 4 2 0 1 1 14 51 121 121 162 157 157 136 135 138 138 109 80 75 62 62 67 nan nan nan nan nan nan nan nan nan nan 0 0 0 0 0 nan nan nan nan nan nan nan nan nan nan nan nan nan nan nan nan nan nan nan nan nan nan nan nan nan nan 1 1 5 9 9 9 10 8 8 4 0 nan nan nan
17 27 23 11 11 5 5 3 2 2 0 nan nan nan 8 35 100 100 195 203 203 134 121 115 115 87 102 80 25 25 84 3 nan nan nan nan nan nan nan nan nan nan 0 nan nan nan nan nan nan nan nan nan nan nan nan nan nan nan nan nan nan nan nan nan nan nan nan nan 0 0 0 nan 0 0 2 7 7 7 7 7 7 8 3 2 2 0
26 17 12 8 8 3 1 0 nan nan nan nan 1 1 7 24 87 87 154 142 142 139 167 152 152 135 2 nan 12 12 26 nan nan nan nan nan nan nan nan nan nan nan nan nan nan nan nan nan nan nan nan nan nan nan nan nan nan nan nan nan nan nan nan nan nan nan nan nan 0 0 0 nan nan nan nan 2 3 3 4 5 5 8 7 6 6 7
15 12 7 6 6 4 2 0 nan nan nan nan 2 2 4 18 46 46 101 111 111 133 183 153 153 144 61 46 48 48 9 nan nan nan nan nan nan nan nan nan nan nan nan nan nan nan nan 0 0 nan nan nan nan nan nan nan nan nan nan nan nan nan nan nan nan nan nan nan nan nan nan nan nan nan nan 1 3 3 3 2 2 5 8 8 8 6
6 3 3 2 2 3 3 0 nan nan nan nan 0 0 2 11 22 22 56 84 84 109 103 110 110 95 50 13 2 2 1 nan nan nan nan nan nan nan nan nan nan nan nan nan nan nan nan 0 0 0 nan nan nan nan nan nan nan nan nan nan nan nan nan nan nan nan nan nan nan nan nan nan nan nan 0 1 1 1 0 0 0 4 6 5 5 3
1 0 0 nan nan nan nan nan nan nan nan nan nan nan 0 5 19 19 46 60 60 54 7 25 25 46 15 nan nan nan nan nan nan nan nan nan nan nan nan nan nan nan nan nan nan 0 nan 0 0 0 nan nan nan nan nan nan nan 0 nan nan nan nan nan nan nan nan nan nan nan nan 0 nan nan nan 1 1 nan nan nan nan nan 3 6 3 3 2
2 0 nan 0 0 nan nan nan nan nan nan nan nan nan 0 11 55 55 83 84 84 102 42 13 13 8 4 2 nan nan nan nan nan nan nan nan nan nan nan nan nan nan nan nan nan nan 0 0 0 0 nan nan nan nan nan nan nan nan nan nan nan nan nan nan nan nan nan nan nan nan nan 0 nan nan 0 nan nan nan nan nan nan 4 7 2 2 1
5 3 1 0 0 nan 0 2 2 2 4 9 20 20 49 106 102 102 68 88 88 160 97 34 34 13 8 7 nan nan nan nan nan nan nan nan nan nan nan nan nan nan nan nan nan nan nan 0 0 0 0 nan nan nan nan nan nan 0 0 nan nan nan nan nan nan nan nan nan nan nan nan nan nan nan nan nan nan nan nan nan nan nan 4 nan nan nan
6 5 6 6 6 5 4 24 52 52 76 84 106 106 129 145 125 125 100 115 115 119 95 39 39 15 8 17 1 1 nan nan nan nan nan 0 nan nan nan nan nan nan nan nan nan nan nan 0 0 nan nan nan nan nan nan nan nan nan 1 0 0 nan nan nan nan nan nan nan nan nan nan nan nan nan nan nan nan nan nan nan nan nan nan nan nan nan
40 42 36 37 37 47 72 82 82 82 66 67 77 77 58 50 55 55 63 60 60 61 79 39 39 20 13 20 9 9 nan nan nan nan nan nan nan nan 0 nan nan nan nan nan nan nan nan nan nan nan nan nan nan nan nan nan nan nan 0 1 1 nan nan nan nan nan nan nan nan nan nan nan nan nan nan nan nan nan nan nan nan nan nan nan nan nan
47 43 44 52 52 48 46 40 24 24 17 17 24 24 25 28 38 38 49 55 55 66 71 39 39 18 14 21 12 12 nan nan nan nan nan nan 0 0 nan nan nan nan nan nan nan nan nan nan nan nan nan nan nan nan nan nan nan nan nan nan nan nan nan nan nan nan nan nan nan nan nan nan nan nan nan nan nan nan nan nan nan nan 0 nan nan nan
8 9 9 11 11 14 15 12 12 12 10 7 8 8 24 59 84 84 73 79 79 78 65 22 22 8 6 11 10 10 6 nan nan nan nan nan 0 0 nan nan nan nan nan nan nan nan nan nan nan nan nan nan nan nan nan nan nan nan nan nan nan nan nan nan nan nan nan nan nan nan nan nan nan nan nan nan nan nan nan nan nan nan nan nan nan nan
6 7 7 7 7 10 10 9 12 12 14 16 14 14 35 85 102 102 70 73 73 76 45 19 19 8 3 6 9 9 2 nan nan nan nan nan 0 0 nan nan nan nan nan nan nan nan nan nan nan nan nan nan nan nan nan nan nan nan nan nan nan nan nan nan nan nan nan nan nan nan nan nan nan nan nan nan nan nan nan nan nan nan nan nan nan nan
6 6 7 8 8 9 9 9 10 10 10 14 13 13 16 46 63 63 58 63 63 48 34 22 22 9 4 2 4 4 nan nan nan nan nan nan nan nan nan nan nan nan nan nan nan nan nan nan nan nan 0 nan nan nan nan nan nan nan nan nan nan nan nan nan nan nan nan nan nan nan nan nan nan nan nan nan nan nan nan nan nan nan nan nan nan nan
6 7 8 10 10 11 12 8 8 8 7 7 7 7 12 38 59 59 62 55 55 36 30 19 19 3 1 1 1 1 nan nan nan nan nan nan nan nan nan nan nan nan nan nan nan nan nan nan nan nan nan nan nan nan nan nan nan nan nan nan nan nan nan nan nan nan nan nan nan nan nan nan nan nan nan nan nan nan nan nan nan nan nan nan nan nan
CIN
nan -0 -0 -0 -0 -0 -0 -0 nan nan nan -0 -0 -0 -0 -0 -0 -0 -0 -0 -0 -0 -0 -0 -0 -0 -0 nan nan nan nan nan -0 -0 -0 -0 -0 -0 -0 -0 -0 -0 nan nan nan nan nan nan nan nan nan nan -3 -3 -1 -1 -1 -1 -0 -0 -0 -0 -0 -0 -0 -0 -0 -0 -0 -0 -0 -0 -0 -0 -4 -6 -4 -4 -3 -4 -4 -5 -3 -1 -1 -0
-0 -0 -0 -0 -0 -0 -0 -0 nan nan nan nan -0 -0 -0 -0 -0 -0 -0 -0 -0 -0 -0 -0 -0 -0 -0 -0 -0 -0 -0 -0 -0 -0 -0 -0 -0 -0 -0 -0 -0 -0 -0 -0 -0 nan nan nan nan nan nan nan nan nan -4 -2 -2 -2 -1 -1 -1 -1 -0 -0 -0 -0 -0 -0 -0 -0 -0 -1 nan nan nan -3 -1 -1 -1 -3 -3 -4 -1 -0 -0 -0
nan -0 -0 -0 -0 -0 nan nan -0 -0 nan nan -0 -0 -0 -0 -0 -0 -0 -0 -0 -0 -0 -0 -0 -0 -0 -0 -0 -0 -0 -0 -0 -0 -0 -0 -0 -0 -0 -0 -0 -0 -0 -0 -0 -0 nan nan nan nan nan nan nan nan -8 -6 -6 -6 -6 -6 -6 -8 -6 -3 -3 -1 -1 -2 -3 -3 -2 nan nan nan nan -1 -0 -0 -0 -2 -2 -3 -0 -0 -0 -0
nan nan -0 -0 -0 -0 nan nan -0 -0 -0 nan -0 -0 -0 -0 -0 -0 -0 -0 -0 nan nan -0 -0 -0 -0 -0 -0 -0 -0 -0 -0 -0 -0 -0 -0 -0 -0 -0 -0 -0 -0 -0 -0 -0 -1 nan nan nan nan nan nan nan nan -11 -11 -12 -13 -15 -15 -18 -15 -10 -10 -7 -4 -16 nan nan nan nan nan nan nan -0 -0 -0 -2 -4 -4 -3 -0 -0 -0 -0
nan nan nan -0 -0 -0 nan nan -0 -0 -0 -0 -0 -0 -0 -0 -0 -0 -0 -0 -0 nan nan -0 -0 -0 -0 -0 -0 -0 -0 -0 -0 -0 -0 -0 -0 -0 -0 -0 -0 -0 -0 -0 -0 -0 -0 nan nan nan nan nan nan nan nan nan nan nan -17 -20 -20 -24 -25 nan nan nan nan nan nan nan nan nan nan nan nan -1 -1 -1 -3 -3 -3 -2 -0 -0 -0 -0
-16 -28 nan nan nan nan nan -0 -0 -0 -0 -0 -0 -0 -0 -0 -0 -0 -0 -0 -0 -0 -0 -0 -0 -0 -0 -0 -0 -0 -0 -0 -0 -0 -0 -0 -0 -0 -0 -0 -0 -0 -0 -0 -0 -0 -0 -0 -0 nan nan nan nan nan nan nan nan nan nan nan nan nan nan nan nan nan nan nan nan nan nan nan nan nan nan -3 -1 -1 -3 -3 -3 -1 -0 -0 -0 -0
-0 -14 nan nan nan -22 nan -0 -0 -0 -0 -0 -0 -0 -0 -0 -0 -0 -0 -0 -0 -0 -0 -0 -0 -0 -0 -0 -0 -0 -0 -0 -0 -0 -0 -0 -0 -0 -0 -0 -0 -0 -0 -0 -0 -0 -0 -0 -0 -1 nan nan nan nan nan nan nan nan nan nan nan nan nan nan nan nan nan nan nan nan nan nan nan nan nan nan -1 -1 -2 -2 -2 -0 -0 -0 -0 -0
-1 -3 -0 -0 -0 nan -0 -0 -0 -0 -0 -0 nan nan nan -0 -0 -0 -0 -0 -0 -0 -0 -0 -0 -0 nan nan nan nan nan nan nan nan nan nan nan nan -0 -0 -0 -0 -0 -0 -0 -0 -0 -0 -0 nan nan nan nan nan nan nan nan nan nan nan nan nan nan nan nan nan nan nan nan nan nan nan nan nan nan nan nan nan nan -1 -1 -0 -0 -0 -0 -0
-1 -2 -3 -15 -15 -0 -0 nan -0 -0 -0 -0 nan nan -0 nan nan nan -0 -0 -0 -0 -0 -0 -0 nan nan nan nan nan nan nan nan nan nan nan nan nan -0 -0 -0 -0 -0 -0 -0 -0 -0 -0 -0 nan nan nan nan nan nan nan nan nan nan nan nan nan nan nan nan nan nan nan nan nan nan nan nan nan nan nan nan nan nan nan nan -1 -1 -0 -0 -0
-2 -1 -2 -2 -2 -1 -1 -1 nan nan -0 -0 -0 -0 -0 -0 -1 -1 nan nan nan -0 -0 -0 -0 nan -0 nan nan nan nan nan nan nan nan nan nan nan -0 -0 -0 -0 -0 -0 -0 -0 -0 -0 -0 -0 nan nan nan nan nan nan nan nan nan nan nan nan nan nan nan nan nan nan nan nan nan nan nan nan nan nan nan nan nan nan nan -0 -0 -0 -0 -0
-1 -2 -1 -1 -1 -5 -9 nan -0 -0 -0 -0 -0 -0 -0 -0 -0 -0 -0 -0 -0 nan -0 -0 -0 -0 nan -0 nan nan nan nan nan nan nan nan -0 -0 -0 -0 -0 -0 -0 -0 -0 -0 -0 -0 -0 -0 -1 -2 nan nan nan nan nan nan nan nan nan nan nan nan nan nan nan nan nan nan nan nan nan nan nan nan nan nan nan nan nan nan -0 -0 -0 -0
-1 -3 -4 -5 -5 -19 nan nan -0 -0 -0 -0 -0 -0 nan nan -0 -0 -1 -0 -0 nan nan -0 -0 -0 nan nan nan nan nan nan nan nan nan -0 -0 -0 -0 -0 -0 -0 -0 -0 -0 -0 -0 -0 -0 -0 -0 -1 nan nan nan nan nan nan nan nan nan nan nan nan nan nan nan nan nan nan nan nan nan nan nan nan nan nan nan nan nan nan nan -0 -0 -0
-1 -4 -3 -4 -4 -7 -11 nan -0 -0 -0 nan nan nan -1 nan nan nan nan -1 -1 -1 nan nan nan -0 nan -0 nan nan nan nan nan nan nan -0 -0 -0 -0 -0 -0 -0 -0 -0 -0 -0 -0 -0 -0 -0 -0 -0 nan nan nan nan nan nan nan nan nan nan nan nan nan nan nan nan nan nan nan nan nan nan nan nan nan nan nan nan nan nan nan -1 -1 -0
-0 -2 -2 -3 -3 -4 -4 -9 nan nan nan nan -2 -2 -4 nan nan nan nan -1 -1 -1 nan nan nan nan nan -0 -0 -0 -0 nan -0 -0 -0 -0 -0 -0 -0 -0 -0 -0 -0 -0 -0 -0 -0 -0 -0 -0 -0 -0 nan nan nan nan nan nan nan nan nan nan nan nan nan nan nan nan nan nan nan nan nan nan nan nan nan nan nan nan nan nan nan nan nan -1
-1 -2 -1 -3 -3 -3 -2 -1 -3 -3 -1 -2 -2 -2 nan nan nan nan nan -1 -1 nan nan nan nan -0 nan nan -0 -0 -0 -0 -0 -0 -0 -0 -0 -0 -0 -0 -0 -0 -0 -0 -0 -0 -0 -0 -0 -0 -0 -0 -1 -1 nan nan nan nan nan nan nan nan nan nan nan nan nan nan nan nan nan nan nan nan nan nan nan nan nan nan nan nan nan nan nan nan
-3 -3 -1 -1 -1 -2 -4 -3 -1 -1 -2 -4 -8 -8 nan nan nan nan nan nan nan nan nan -0 -0 -0 -1 nan -0 -0 -0 -0 -0 -0 -0 -0 -0 -0 -0 -0 -0 -0 -0 -0 -0 -0 -0 -0 -0 -0 -0 -2 nan nan nan nan nan nan nan nan nan nan nan nan nan nan nan nan nan nan nan nan nan nan nan nan nan nan nan nan nan nan nan nan nan nan
-2 -1 -1 -0 -0 -1 -3 -4 -3 -3 -2 -4 -3 -3 -26 nan nan nan nan nan nan nan nan nan nan nan -1 nan nan nan -0 -0 -0 -0 -0 -0 nan nan -0 -0 -0 -0 -0 -0 -0 -0 -0 -0 -0 -0 -0 nan nan nan nan nan nan nan nan nan nan nan nan nan nan nan nan nan nan nan nan nan nan nan nan nan nan nan nan nan nan nan nan nan nan nan
-1 -1 -0 -1 -1 -2 -3 -5 -7 -7 -2 -2 -9 -9 -20 -32 nan nan nan nan nan nan nan -1 -1 nan -0 -1 nan nan -0 -0 -0 -0 -0 -0 nan nan nan -0 -0 -0 -0 -0 -0 -0 -0 -0 -0 -0 -1 nan nan nan nan nan nan nan nan nan nan nan nan nan nan nan nan nan nan nan nan nan nan nan nan nan nan nan nan nan nan nan nan nan nan nan
-1 -2 -1 -1 -1 -1 -1 -4 -6 -6 -2 -2 -9 -9 -17 -35 nan nan nan nan nan nan nan nan nan nan nan -0 nan nan -0 -0 -0 -0 -0 -0 -0 -0 -0 -0 -0 -0 -0 -0 -0 -0 -0 -0 -0 -2 nan nan nan nan nan nan nan nan nan nan nan nan nan nan nan nan nan nan nan nan nan nan nan nan nan nan nan nan nan nan nan nan nan nan nan nan
-1 -1 -1 -1 -1 -1 -0 -1 -4 -4 -7 -8 -8 -8 -9 -20 nan nan nan nan nan nan nan nan nan nan nan -1 nan nan -0 -0 -0 -0 -0 -0 -1 -1 -0 -0 -0 -0 -0 -0 -0 -0 -2 -0 -0 -3 nan nan nan nan nan nan nan nan nan nan nan nan nan nan nan nan nan nan nan nan nan nan nan nan -0 -0 -0 -0 nan nan nan nan nan nan nan nan
-0 -0 -3 -2 -2 -1 -0 -1 -1 -1 -5 -5 -1 -1 -1 -15 -25 -25 nan nan nan nan nan -1 -1 nan -2 nan nan nan -0 -0 -0 -0 -0 -0 nan nan -0 -0 -0 -0 -0 -0 -0 -2 nan nan nan -2 -9 nan nan nan nan nan nan nan nan nan nan nan nan nan nan nan nan nan nan nan nan nan nan nan -0 -0 -0 -0 nan nan nan nan nan nan nan nan
-0 -0 -3 -5 -5 -1 -0 -0 -0 -0 -1 -2 -16 -16 -1 -9 -16 -16 -21 nan nan nan nan -3 -3 -4 -4 -1 nan nan -0 -0 nan nan -0 -0 nan nan -0 -0 -0 -0 -0 -0 -0 nan nan nan nan nan -3 nan nan nan nan nan nan nan nan nan nan nan nan nan nan nan nan -0 -0 -0 -0 nan nan nan -0 -0 -0 -0 nan nan nan nan nan nan nan nan
-0 -0 -0 -1 -1 -0 -0 -0 -1 -1 -1 -0 -11 -11 -8 -3 -9 -9 -25 nan nan nan nan nan nan nan nan nan nan nan -0 -0 nan nan -0 -0 -0 -0 -0 -0 -0 -0 -0 -0 -0 nan nan nan nan nan nan -11 nan nan nan nan nan nan nan nan nan nan nan nan nan nan -0 -0 -0 -0 -0 -0 nan nan -0 -0 nan nan nan nan nan nan nan nan nan nan
-1 -0 -0 -0 -0 -1 -2 -2 -2 -2 -4 -6 -10 -10 -23 -28 -26 -26 -36 -50 -50 nan nan nan nan nan nan nan -0 -0 -0 -0 -0 -0 -0 -0 nan nan -0 -0 -0 -0 -0 nan nan -0 nan nan nan nan nan nan nan nan nan nan nan nan nan nan nan nan nan nan nan nan -0 -0 -0 -0 -0 -0 nan nan nan nan nan nan nan nan nan nan nan nan nan nan
-1 -1 -1 -0 -0 -1 -1 -1 -1 -1 -3 -11 -29 -29 nan nan -68 -68 nan nan nan nan nan nan nan nan -0 -0 -0 -0 -0 -0 -0 -0 -0 -0 nan nan -0 -0 -0 -0 -0 nan nan -0 nan nan nan nan nan nan nan nan nan nan nan nan nan nan nan nan nan nan nan nan -0 -0 -0 -0 -0 -0 -0 -0 nan -0 nan nan nan nan nan nan nan nan nan nan
-0 -0 -0 -1 -1 -0 -0 -0 -0 -0 -1 -3 -8 -8 -8 -38 nan nan nan nan nan nan -0 -0 -0 -0 -0 -0 -0 -0 -0 -0 -0 -0 -0 -0 -3 -3 nan -0 -0 -0 -0 nan nan -0 nan nan nan nan nan nan -0 -0 nan nan nan nan nan nan nan nan nan nan nan nan -0 -0 -0 -0 -0 -0 -0 -0 nan nan nan nan nan nan nan nan nan nan nan nan
-0 -0 -0 -0 -0 -0 -0 -0 -0 -0 -0 -1 -3 -3 -6 -8 -10 -10 nan nan nan nan nan -0 -0 -0 -0 -0 -0 -0 -0 -0 -0 -0 -0 -0 nan nan nan -0 -0 -0 -0 nan nan nan -0 nan nan nan nan nan nan nan nan nan nan nan nan nan nan nan nan nan nan -0 -0 -0 -0 -0 -0 -0 -0 -0 nan nan nan nan nan nan nan nan nan nan nan nan
-0 -0 -0 -0 -0 -0 -0 -0 -0 -0 -0 -0 -0 -0 -2 -4 -2 -2 -0 -32 -32 nan nan -0 -0 -0 -0 -1 -1 -1 -1 -0 -0 -0 -0 -0 -0 -0 -0 -0 -0 -0 nan nan nan nan -0 nan nan nan nan nan nan nan nan nan nan nan nan nan nan nan nan -1 -1 -0 -0 -0 -0 -0 -0 -0 -0 -0 nan nan nan nan nan nan nan nan nan nan nan nan
-0 -0 -0 -0 -0 -0 -0 -0 -0 -0 -0 -0 -0 -0 -0 -0 -0 -0 -1 -2 -2 -6 nan nan nan -1 -1 -0 nan nan nan -0 -0 -0 -0 -0 -0 -0 nan -0 -0 -0 nan nan nan -0 -0 -0 -0 -0 nan nan nan nan nan nan nan nan nan nan nan nan nan -1 -1 -0 -0 -0 -0 -0 -0 -0 -0 -0 -0 nan nan nan nan nan nan nan nan nan nan nan
-0 -0 -0 -0 -0 -0 -0 -0 -0 -0 -0 -0 -0 -0 -0 -0 -0 -0 -4 -9 -9 -4 -4 -2 -2 -1 -2 nan nan nan nan -0 -0 -0 -0 -0 nan nan nan -0 -0 -0 nan nan nan -0 -0 -0 -0 nan nan nan nan nan nan -0 -0 nan nan nan nan nan -1 -0 -0 -0 -0 -0 -0 -0 -0 -0 -0 -0 -0 nan nan nan nan nan nan nan nan nan nan nan
-0 -0 -0 -0 -0 -0 -0 -0 -0 -0 -0 -0 -0 -0 -0 -0 -0 -0 -0 nan nan -7 -5 -5 -5 -1 -1 nan nan nan nan -0 nan nan -1 -0 nan nan nan -0 -0 -0 -0 nan nan nan nan -0 -0 nan nan -0 nan nan nan nan nan nan nan nan nan -0 -0 -1 -1 -0 -0 -0 -0 -0 -0 -0 -0 -0 -0 nan nan nan nan nan nan nan nan nan nan nan
-1 -1 -1 -3 -3 -0 -0 -1 -2 -2 -0 -1 -3 -3 -2 -3 -2 -2 -1 -1 -1 -2 -4 -8 -8 -0 -0 -0 -1 -1 -5 nan nan nan nan -1 -3 -3 nan -0 -0 -0 -1 -1 -1 -0 -0 nan nan nan nan nan nan nan nan nan nan nan nan nan nan nan nan -0 -0 -0 -0 -0 -0 -0 -0 -0 -0 -0 -0 -0 -0 -0 -0 -0 -0 nan nan nan nan nan
-0 -0 -0 -0 -0 -0 -0 -0 -0 -0 -3 -4 -3 -3 -4 -3 -3 -3 -3 -2 -2 -0 -1 -1 -1 -0 -0 -0 -1 -1 nan nan nan nan nan -2 nan nan nan -0 -0 -0 -0 nan nan nan nan nan nan nan nan nan nan nan nan nan nan nan nan nan nan nan -0 -0 -0 -1 -0 -0 -0 -0 -0 -0 -0 -0 -0 -0 -0 -0 -0 -0 -0 nan nan nan nan nan
-1 -0 -0 -0 -0 -0 -1 -0 -0 -0 -2 -7 -3 -3 -3 -2 -3 -3 -4 -3 -3 -1 -2 -1 -1 -0 -0 -0 -1 -1 -2 nan nan nan nan -1 -0 -0 -0 -0 -0 -1 -0 nan nan nan nan nan nan nan nan nan nan nan nan nan nan nan nan nan nan nan nan nan nan nan -1 -2 nan nan -1 -0 -0 -0 -0 -0 -0 -0 -0 -0 -0 nan nan nan nan nan
-0 -0 -0 -1 -1 -0 -0 -0 -0 -0 -0 -7 -8 -8 -3 -1 -2 -2 -5 -3 -3 -2 -3 -3 -3 -2 -2 -1 -0 -0 -2 nan nan nan nan -1 nan nan nan -1 -1 -1 -1 nan nan nan nan nan nan nan nan nan nan nan nan nan nan nan nan nan nan nan nan nan nan nan nan nan nan nan nan -2 -0 -0 -0 -0 -0 -0 -0 -0 -0 -0 nan nan nan nan
-0 -1 -0 -0 -0 -0 -0 -0 -0 -0 -0 -1 -7 -7 -4 -1 -2 -2 -4 -2 -2 -3 -3 -3 -3 -3 -5 -2 -1 -1 -5 nan nan nan nan nan nan nan nan nan nan -1 -1 nan nan -1 nan nan nan nan nan nan nan nan nan nan nan nan nan nan nan nan nan nan nan nan nan nan nan nan nan nan -1 -1 -1 -0 -0 -0 -0 -0 -0 -0 nan nan nan nan
-0 -0 -0 -0 -0 -0 -0 -0 -0 -0 -0 -0 -5 -5 -1 -4 -1 -1 -1 -3 -3 -4 -3 -3 -3 -4 -6 -5 -6 -6 -9 nan nan nan nan nan nan nan nan nan nan -0 -0 -1 -1 -1 nan nan nan nan nan nan nan nan nan nan nan nan nan nan nan nan nan nan nan nan nan nan nan nan nan nan -2 -2 -1 -0 -0 -0 -0 -0 -0 -0 -0 nan nan nan
-0 -0 -0 -0 -0 -0 -0 -0 -0 -0 -0 nan nan nan -4 -8 -2 -2 -0 -1 -1 -4 -4 -4 -4 -7 -2 -5 -27 -27 -10 -34 nan nan nan nan nan nan nan nan nan nan -0 nan nan nan nan nan nan nan nan nan nan nan nan nan nan nan nan nan nan nan nan nan nan nan nan nan -0 -0 -0 nan -2 -2 -2 -1 -1 -1 -0 -0 -0 -0 -0 -0 -0 -0
-0 -0 -0 -0 -0 -0 -0 -0 nan nan nan nan -0 -0 -7 -11 -4 -4 -2 -1 -1 -1 -1 -3 -3 -3 -78 nan -50 -50 -26 nan nan nan nan nan nan nan nan nan nan nan nan nan nan nan nan nan nan nan nan nan nan nan nan nan nan nan nan nan nan nan nan nan nan nan nan nan -0 -0 -0 nan nan nan nan -2 -1 -1 -0 -0 -0 -0 -0 -0 -0 -0
-0 -0 -0 -0 -0 -0 -0 -0 nan nan nan nan -6 -6 -4 -7 -6 -6 -2 -1 -1 -0 -0 -1 -1 -4 -16 -16 -12 -12 -34 nan nan nan nan nan nan nan nan nan nan nan nan nan nan nan nan -2 -2 nan nan nan nan nan nan nan nan nan nan nan nan nan nan nan nan nan nan nan nan nan nan nan nan nan nan -1 -1 -1 -0 -1 -1 -0 -0 -0 -0 -0
-0 -1 -0 -0 -0 -0 -0 -1 nan nan nan nan -4 -4 -3 -3 -4 -4 -1 -1 -1 -0 -0 -1 -1 -6 -8 -19 -50 -50 -52 nan nan nan nan nan nan nan nan nan nan nan nan nan nan nan nan -2 -2 -3 nan nan nan nan nan nan nan nan nan nan nan nan nan nan nan nan nan nan nan nan nan nan nan nan -2 -1 -1 -1 -2 -2 -2 -0 -0 -0 -0 -0
-0 -0 -0 nan nan nan nan nan nan nan nan nan nan nan -4 -4 -2 -2 -1 -1 -1 -1 -14 -4 -4 -2 -6 nan nan nan nan nan nan nan nan nan nan nan nan nan nan nan nan nan nan -1 nan -3 -3 -2 nan nan nan nan nan nan nan -1 nan nan nan nan nan nan nan nan nan nan nan nan -1 nan nan nan -1 -1 nan nan nan nan nan -0 -0 -0 -0 -0
-0 -0 nan -0 -0 nan nan nan nan nan nan nan nan nan -5 -4 -1 -1 -0 -0 -0 -0 -1 -3 -3 -2 -3 -28 nan nan nan nan nan nan nan nan nan nan nan nan nan nan nan nan nan nan -1 -3 -3 -3 nan nan nan nan nan nan nan nan nan nan nan nan nan nan nan nan nan nan nan nan nan -1 nan nan -2 nan nan nan nan nan nan -0 -0 -0 -0 -0
-0 -0 -0 -0 -0 nan -0 -0 -0 -0 -0 -0 -1 -1 -1 -1 -0 -0 -0 -0 -0 -0 -1 -2 -2 -1 -1 -1 nan nan nan nan nan nan nan nan nan nan nan nan nan nan nan nan nan nan nan -1 -1 -2 -3 nan nan nan nan nan nan -0 -1 nan nan nan nan nan nan nan nan nan nan nan nan nan nan nan nan nan nan nan nan nan nan nan -0 nan nan nan
-0 -0 -0 -0 -0 -0 -1 -0 -0 -0 -0 -0 -0 -0 -0 -0 -0 -0 -0 -0 -0 -0 -1 -3 -3 -1 -0 -1 -2 -2 nan nan nan nan nan -0 nan nan nan nan nan nan nan nan nan nan nan -1 -1 nan nan nan nan nan nan nan nan nan -0 -1 -1 nan nan nan nan nan nan nan nan nan nan nan nan nan nan nan nan nan nan nan nan nan nan nan nan nan
-0 -0 -0 -1 -1 -0 -0 -0 -0 -0 -0 -0 -0 -0 -1 -2 -3 -3 -2 -1 -1 -1 -1 -3 -3 -1 -0 -1 -1 -1 nan nan nan nan nan nan nan nan -0 nan nan nan nan nan nan nan nan nan nan nan nan nan nan nan nan nan nan nan -0 -1 -1 nan nan nan nan nan nan nan nan nan nan nan nan nan nan nan nan nan nan nan nan nan nan nan nan nan
-0 -0 -0 -0 -0 -1 -1 -1 -1 -1 -1 -3 -2 -2 -2 -4 -4 -4 -3 -1 -1 -0 -1 -2 -2 -1 -0 -0 -1 -1 nan nan nan nan nan nan -0 -0 nan nan nan nan nan nan nan nan nan nan nan nan nan nan nan nan nan nan nan nan nan nan nan nan nan nan nan nan nan nan nan nan nan nan nan nan nan nan nan nan nan nan nan nan -0 nan nan nan
-0 -0 -0 -1 -1 -0 -0 -1 -1 -1 -1 -2 -2 -2 -1 -0 -0 -0 -1 -1 -1 -0 -0 -1 -1 -1 -0 -0 -1 -1 -0 nan nan nan nan nan -0 -0 nan nan nan nan nan nan nan nan nan nan nan nan nan nan nan nan nan nan nan nan nan nan nan nan nan nan nan nan nan nan nan nan nan nan nan nan nan nan nan nan nan nan nan nan nan nan nan nan
-0 -0 -0 -0 -0 -0 -0 -1 -1 -1 -0 -0 -1 -1 -0 -0 -0 -0 -2 -1 -1 -0 -1 -1 -1 -0 -0 -0 -1 -1 -5 nan nan nan nan nan -0 -0 nan nan nan nan nan nan nan nan nan nan nan nan nan nan nan nan nan nan nan nan nan nan nan nan nan nan nan nan nan nan nan nan nan nan nan nan nan nan nan nan nan nan nan nan nan nan nan nan
-0 -0 -0 -0 -0 -1 -2 -1 -0 -0 -0 -0 -0 -0 -0 -0 -3 -3 -3 -1 -1 -1 -1 -1 -1 -1 -0 -0 -0 -0 nan nan nan nan nan nan nan nan nan nan nan nan nan nan nan nan nan nan nan nan -0 nan nan nan nan nan nan nan nan nan nan nan nan nan nan nan nan nan nan nan nan nan nan nan nan nan nan nan nan nan nan nan nan nan nan nan
-0 -0 -0 -0 -0 -0 -0 -0 -0 -0 -0 -0 -0 -0 -0 -0 -0 -0 -0 -0 -0 -0 -0 -1 -1 -1 -0 -0 -1 -1 nan nan nan nan nan nan nan nan nan nan nan nan nan nan nan nan nan nan nan nan nan nan nan nan nan nan nan nan nan nan nan nan nan nan nan nan nan nan nan nan nan nan nan nan nan nan nan nan nan nan nan nan nan nan nan nan
Wind_Speed
2 1 1 1 2 2 2 3 4 3 3 3 3 2 2 2 2 2 2 2 2 2 2 2 2 2 3 3 3 3 3 3 3 2 2 2 2 2 2 2 3 4 4 5 6 6 7 8 8 9 9 9 9 10 10 11 12 13 14 14 14 14 14 14 13 13 12 11 10 9 8 6 5 5 5 5 5 5 6 6 7 9 11 13 14 15
2 2 1 2 2 2 2 3 4 4 4 3 3 3 3 3 3 2 2 2 2 1 1 2 2 2 2 3 3 3 3 3 3 3 3 3 3 3 3 3 4 5 5 6 6 7 8 8 9 9 9 9 9 10 10 11 12 13 13 14 14 15 14 14 14 13 12 11 10 9 8 7 6 5 6 6 7 7 8 8 9 11 13 14 15 15
2 2 2 2 3 3 3 3 3 4 4 3 3 3 4 4 3 3 2 2 2 2 1 1 1 2 2 2 3 3 3 3 3 3 4 4 4 4 5 5 5 6 6 7 7 7 8 9 10 10 10 10 10 10 10 11 11 12 13 14 14 14 14 14 13 13 12 11 10 9 8 7 6 6 7 8 9 10 10 10 11 12 14 15 15 16
2 2 2 2 3 4 5 4 3 3 3 3 3 3 4 4 3 3 3 2 2 2 2 2 2 2 2 2 3 3 4 4 5 5 5 5 6 6 6 7 7 7 7 8 8 8 8 9 10 10 11 11 11 11 11 11 11 12 13 13 13 13 13 12 12 11 10 9 9 8 7 7 6 6 7 10 11 12 12 12 13 13 14 15 15 16
2 2 2 2 3 4 5 4 3 2 3 2 3 3 4 3 2 2 2 2 2 2 2 2 2 2 2 2 3 4 5 6 6 7 7 7 8 8 8 8 9 9 9 9 9 9 9 9 10 10 11 11 11 11 11 11 12 12 13 13 13 13 12 12 11 10 9 9 9 9 8 7 6 6 6 9 11 13 14 14 14 15 15 15 15 15
4 3 2 3 3 4 3 2 2 2 2 2 3 3 3 3 2 2 2 2 2 2 2 2 2 2 3 3 4 5 6 7 8 8 9 9 9 10 10 10 10 10 10 11 11 10 10 10 10 11 11 11 12 12 12 12 12 12 13 13 13 12 12 11 11 10 9 10 10 10 9 8 7 5 5 6 9 13 15 16 17 17 16 16 15 16
4 2 2 2 3 3 2 2 2 3 3 3 3 3 3 2 2 2 3 3 3 2 2 2 3 3 4 4 5 6 6 7 8 9 10 10 10 11 11 11 11 11 11 12 12 12 11 11 11 11 11 12 12 12 12 12 13 13 13 13 13 13 12 12 11 10 10 10 11 11 10 9 8 6 5 4 6 10 14 17 18 18 18 17 16 16
5 3 2 3 3 2 2 2 3 4 4 3 3 3 3 3 3 3 4 4 3 3 3 3 3 4 4 5 5 5 5 6 7 7 8 9 10 10 11 11 12 12 12 12 12 12 12 12 12 12 12 12 12 13 13 13 13 13 14 14 14 13 12 12 11 11 11 11 11 11 10 10 9 8 7 6 5 6 10 14 17 18 19 18 17 16
6 5 4 4 4 3 3 4 4 4 4 4 4 4 5 4 4 3 3 3 4 4 3 3 4 4 4 4 4 4 5 5 5 5 6 6 7 8 9 10 11 12 12 12 12 13 13 13 12 12 12 12 13 13 13 14 14 14 14 14 14 13 13 12 12 11 11 12 12 11 11 10 10 10 9 8 7 6 6 8 11 14 16 16 15 15
8 7 6 5 4 4 5 5 4 3 4 4 5 5 5 5 5 4 4 4 4 3 3 4 4 5 4 3 3 4 4 5 6 7 7 7 7 8 8 9 9 10 11 12 12 13 13 13 13 13 13 13 13 13 14 14 14 14 15 15 14 14 13 13 12 12 12 12 12 12 12 11 11 11 11 11 10 9 8 7 8 9 11 12 13 13
7 7 6 5 4 4 4 3 2 1 2 3 4 4 4 5 5 5 6 6 4 2 2 3 4 4 4 3 3 3 3 4 5 6 7 8 8 9 9 9 9 9 10 11 12 12 13 13 14 14 13 13 13 13 14 14 14 14 15 15 14 14 13 13 13 13 13 13 13 13 12 12 12 12 12 12 11 11 10 9 9 9 10 11 12 12
6 5 5 4 3 2 2 1 1 1 2 2 3 4 5 5 5 5 6 7 5 3 2 2 3 3 4 3 3 2 2 3 4 4 4 5 6 7 7 7 8 9 9 10 11 12 13 14 14 14 14 14 14 14 14 14 14 15 15 15 14 14 13 13 13 13 13 13 14 13 13 12 12 12 12 12 12 12 11 10 10 9 9 10 11 11
5 4 4 4 3 3 3 2 2 2 2 3 4 5 6 4 4 4 5 7 6 5 3 2 2 3 3 3 3 2 2 3 3 4 4 4 4 4 4 5 5 6 6 7 7 9 11 13 14 14 14 14 14 14 15 15 15 16 16 15 15 14 14 13 13 14 14 14 14 14 14 13 13 13 13 13 12 12 12 11 11 10 10 10 10 11
5 5 5 5 5 4 4 4 4 4 5 6 6 6 5 3 3 4 5 6 6 5 3 3 3 3 3 3 4 3 3 3 3 4 5 5 4 4 4 4 4 5 5 5 6 7 9 9 10 11 14 14 14 15 15 16 17 17 17 16 15 15 14 14 14 14 14 14 14 14 14 14 14 13 13 13 13 13 12 12 11 11 10 10 10 10
6 6 6 6 5 5 5 5 6 7 7 7 6 5 4 3 3 4 5 6 5 4 2 4 5 5 3 4 4 4 4 3 3 4 5 5 5 4 4 4 5 5 5 5 6 7 8 8 8 8 10 13 14 14 14 15 17 19 18 17 17 16 15 15 15 15 15 15 15 15 15 15 15 14 14 14 14 13 13 13 12 12 11 10 10 10
6 6 7 6 6 5 5 5 5 6 6 6 5 5 4 5 5 5 5 6 4 3 3 4 5 5 4 3 3 4 4 4 4 5 6 5 4 3 4 4 5 5 5 6 6 6 7 7 7 8 9 11 13 13 14 15 17 19 18 18 17 16 16 16 16 16 16 16 16 16 16 16 16 15 15 15 14 14 14 13 13 12 11 10 9 9
7 7 7 6 6 6 5 5 5 5 5 4 5 5 5 6 6 5 5 4 3 3 4 4 4 4 3 1 2 3 4 4 4 4 5 5 3 2 3 4 5 6 5 6 6 6 6 7 7 7 7 9 12 14 15 16 17 18 18 18 17 17 17 17 17 17 17 17 17 17 17 16 16 16 15 15 15 14 14 14 13 13 12 11 10 9
7 7 7 7 7 6 4 4 4 4 4 4 4 5 5 6 5 5 5 4 4 4 4 4 4 3 3 2 2 2 5 5 4 4 4 5 3 2 2 3 4 5 6 6 6 6 6 7 7 7 6 9 12 14 15 16 17 17 17 17 17 17 17 17 17 17 18 18 18 18 17 17 16 16 15 15 15 14 14 14 13 13 12 11 10 9
7 7 8 8 7 6 4 4 4 4 4 4 4 4 5 5 5 5 5 5 5 6 5 5 4 4 4 4 3 2 4 5 4 3 3 4 3 2 2 3 4 5 6 6 6 6 6 6 6 7 7 10 12 14 16 16 17 17 17 17 17 17 17 17 18 18 18 18 18 18 18 17 17 16 15 15 15 14 14 14 13 13 12 11 10 10
8 8 8 7 6 6 7 6 5 5 5 5 5 6 6 6 6 6 6 6 6 6 5 5 5 5 5 5 3 3 5 4 4 3 4 4 3 2 3 3 4 5 6 6 5 4 4 5 5 6 7 10 13 15 17 17 17 17 17 17 17 17 18 18 18 18 19 19 19 18 18 18 17 16 16 15 15 14 14 13 13 12 12 11 11 10
9 9 9 7 7 7 5 4 3 4 5 5 5 6 6 6 6 6 6 6 6 6 6 6 7 6 5 4 3 3 6 5 4 3 3 3 3 2 3 4 4 5 6 5 4 2 2 3 3 4 6 10 13 15 17 17 17 17 18 18 18 18 18 18 19 19 19 19 19 19 18 18 17 17 16 15 15 14 14 13 13 12 12 11 11 11
9 10 10 9 8 7 6 5 5 5 5 5 5 4 5 5 6 6 6 6 7 7 7 7 7 5 4 4 2 3 6 6 5 4 2 3 4 3 2 3 4 5 6 4 2 2 2 2 3 4 6 11 14 16 17 17 17 18 18 18 19 19 19 19 19 19 19 19 19 19 18 18 18 17 17 16 15 15 14 14 13 13 12 12 11 11
10 10 10 10 9 9 9 8 7 6 6 6 6 5 4 5 5 6 6 6 7 7 7 6 3 2 1 1 2 3 4 5 5 4 3 4 4 3 3 3 4 4 5 3 2 1 2 2 3 4 6 11 14 16 17 18 18 18 19 19 19 20 20 20 20 20 20 19 19 19 19 18 18 17 17 16 15 15 14 14 13 13 12 12 12 11
10 10 10 10 10 9 9 8 6 5 4 5 5 5 5 5 5 5 4 5 5 4 4 3 2 1 1 1 2 2 4 4 4 4 4 5 4 2 2 3 4 4 4 2 1 1 2 2 3 3 4 9 13 16 18 18 19 19 20 20 20 21 21 21 21 20 20 20 20 19 19 19 18 18 17 16 16 15 15 14 13 13 13 12 12 12
10 10 10 10 10 11 11 10 8 7 6 5 4 4 4 5 5 4 3 3 3 3 3 3 4 4 4 4 4 4 4 4 5 5 4 4 3 2 2 3 4 4 3 1 1 1 2 3 3 3 3 6 10 15 18 19 20 20 20 21 21 21 22 21 21 21 21 20 20 20 19 19 18 18 17 17 16 15 15 14 14 13 13 12 12 12
14 14 14 14 16 17 18 18 17 15 13 9 6 5 4 4 4 4 3 3 3 4 4 5 6 6 5 5 5 5 4 5 5 5 5 4 3 2 2 3 4 4 3 1 1 1 2 3 3 3 2 4 7 12 16 19 20 21 21 21 22 22 22 22 22 21 21 21 20 20 20 19 19 18 17 17 16 15 15 14 14 13 13 12 12 11
21 21 22 22 22 22 22 22 22 21 20 17 13 9 6 5 4 5 5 4 4 4 5 6 6 6 6 5 5 5 5 5 5 6 5 4 3 2 2 3 4 3 2 1 1 1 2 3 3 3 3 3 4 7 14 17 20 21 22 22 22 22 22 22 22 22 21 21 21 20 20 19 19 18 17 17 16 15 15 14 14 13 13 11 10 9
24 24 23 23 23 22 22 21 20 20 19 19 18 16 11 7 6 7 7 5 4 5 6 7 6 6 5 6 5 4 5 5 6 6 6 5 4 3 2 3 3 3 2 1 1 1 1 2 2 2 3 3 3 4 8 14 18 21 22 22 23 23 23 22 22 22 22 21 21 20 20 19 19 18 18 17 16 16 15 15 14 13 12 9 7 6
19 20 20 20 19 18 18 16 15 15 15 16 17 16 12 9 8 7 6 4 5 6 7 7 7 6 5 4 4 3 4 5 6 6 6 5 4 3 2 3 3 3 3 2 1 0 1 1 1 1 2 3 2 2 4 9 13 17 20 22 23 23 23 22 22 22 22 21 21 21 20 20 19 18 18 17 17 16 16 16 14 12 9 7 5 4
10 11 12 12 11 11 10 10 10 10 12 14 15 14 11 9 8 7 6 5 5 7 8 7 7 7 5 3 3 3 4 6 6 7 7 6 4 2 2 3 4 4 4 3 1 1 1 1 1 1 1 2 2 1 2 4 6 9 13 17 19 20 21 22 22 22 22 22 21 21 20 20 19 19 18 18 17 17 16 16 14 10 7 6 5 4
7 7 7 7 7 6 6 7 8 8 10 12 12 12 10 8 7 7 6 6 6 6 7 7 7 7 6 4 4 4 4 5 6 8 8 6 5 3 4 4 4 4 4 4 3 2 2 2 1 1 1 2 2 2 1 2 2 4 7 9 11 14 18 20 20 20 21 21 21 21 20 20 19 19 18 18 18 17 17 16 13 10 6 6 6 5
8 7 7 7 6 5 5 6 6 6 7 8 9 9 9 8 8 7 7 6 6 6 6 6 6 6 6 6 6 5 4 4 6 9 9 6 4 3 4 5 5 4 4 4 4 3 2 2 1 1 1 2 2 2 2 1 1 1 5 6 7 9 15 16 17 17 17 19 20 21 21 20 20 19 19 19 18 18 18 17 14 10 7 7 6 6
9 8 8 7 6 6 6 6 6 6 6 6 7 7 8 8 8 8 8 7 6 6 6 6 6 6 6 7 7 6 3 3 7 10 10 6 4 3 4 5 5 4 4 3 3 2 2 2 1 1 1 2 3 3 3 2 1 1 3 5 6 7 11 12 12 12 12 14 16 18 19 20 20 20 19 19 19 18 18 17 15 12 9 7 7 6
10 10 10 9 8 7 7 7 7 7 7 6 7 7 7 8 8 8 8 8 7 7 7 7 7 7 8 7 6 5 4 3 7 10 11 7 5 3 4 5 5 5 4 3 2 1 1 1 2 1 1 2 2 3 3 2 2 1 2 4 6 7 8 9 9 9 9 10 10 11 14 15 17 18 18 19 19 18 18 17 16 14 12 9 7 7
10 11 10 10 9 8 8 8 7 7 7 7 7 7 8 8 8 8 8 8 8 8 7 7 7 7 8 7 6 6 5 4 7 10 11 9 6 4 4 6 6 6 5 5 4 2 1 2 2 2 2 2 2 2 2 2 2 1 1 2 4 6 7 8 8 8 8 8 8 8 9 10 11 13 15 16 17 18 18 18 17 15 14 12 10 8
9 10 10 9 9 8 8 8 7 7 7 7 7 7 8 8 8 8 8 8 8 8 8 8 8 8 8 8 8 7 6 4 7 10 12 9 7 5 5 5 6 7 6 6 5 4 3 3 3 3 3 3 3 3 2 2 2 1 1 2 3 5 7 7 7 7 8 7 7 7 7 8 8 9 11 15 17 18 18 18 17 16 15 14 12 10
7 7 7 7 7 7 7 7 7 7 7 6 6 7 8 8 8 8 8 8 8 8 9 9 9 9 9 9 9 8 7 4 7 10 12 10 8 6 6 5 6 8 8 7 7 6 5 4 3 3 3 4 4 4 3 3 3 2 2 2 2 3 6 7 7 8 8 8 8 7 7 7 7 8 9 14 16 17 18 18 18 17 16 15 14 12
6 6 6 6 6 6 7 7 7 7 7 6 6 7 8 8 9 9 8 8 9 9 9 8 8 8 11 11 10 10 9 7 8 10 13 10 9 8 7 6 7 8 8 8 8 7 7 6 5 5 4 4 3 4 5 5 5 5 4 3 2 2 4 6 7 8 8 8 8 8 8 8 7 7 8 10 11 12 12 13 14 15 15 15 14 14
6 6 6 7 7 7 7 7 7 7 7 7 7 7 7 9 9 9 8 8 8 9 9 8 7 7 9 10 11 11 11 9 9 10 12 11 10 8 8 7 7 8 8 8 7 8 8 7 7 7 6 4 3 4 4 6 6 7 6 3 2 2 3 5 7 8 8 8 9 9 8 7 7 7 7 8 8 9 9 9 10 11 12 11 11 12
7 7 7 8 7 7 7 7 7 7 6 7 7 8 8 8 8 8 8 8 8 9 9 9 8 7 7 7 9 10 11 9 9 10 11 10 10 9 8 8 7 7 8 7 7 7 8 8 8 7 7 5 5 4 5 5 6 7 8 5 4 4 4 4 6 7 8 8 9 9 8 7 7 7 8 8 9 9 9 8 9 10 10 9 8 9
8 8 8 8 7 8 8 7 7 7 7 7 7 7 8 7 7 6 7 7 7 8 7 7 7 7 6 6 6 7 7 7 8 10 10 11 11 11 9 8 7 7 8 7 7 7 8 8 8 7 7 6 5 5 6 6 8 10 11 9 7 6 6 5 5 6 7 8 8 9 9 8 8 8 9 9 9 8 8 8 8 9 9 8 8 8
8 8 8 7 7 7 6 7 7 7 7 7 8 8 7 7 7 7 6 6 6 5 4 5 6 6 6 6 5 4 4 4 6 9 11 12 13 12 10 9 8 7 7 8 8 8 8 8 8 8 7 7 6 5 5 6 8 9 10 9 8 7 5 5 4 5 6 8 8 9 10 9 9 9 9 9 8 7 7 8 9 10 9 8 8 7
8 8 7 7 7 7 7 8 8 8 7 8 8 8 8 7 7 7 7 7 7 6 5 5 5 5 6 6 5 4 3 3 4 6 9 11 13 13 12 10 9 8 8 8 8 8 8 8 8 7 7 7 7 7 7 7 7 8 9 9 9 7 5 5 5 5 6 7 8 9 9 8 8 8 8 7 6 6 6 8 9 10 9 8 7 7
7 7 7 7 7 7 7 8 8 8 8 8 8 7 7 6 7 7 6 6 6 6 6 5 5 5 6 7 6 5 3 2 3 4 6 9 11 12 11 11 10 9 9 9 8 7 7 7 7 7 6 6 7 7 7 7 8 8 8 9 9 9 8 7 7 7 6 7 7 8 8 8 7 7 6 6 5 5 6 6 7 7 8 7 6 6
7 7 7 7 7 7 8 8 7 7 6 6 6 6 5 5 5 5 6 6 6 7 6 5 4 4 6 7 6 5 3 2 2 3 4 5 8 10 10 9 9 9 10 9 8 8 7 7 7 6 5 6 6 7 7 7 8 8 8 9 9 8 7 7 8 9 7 7 7 8 8 8 8 7 6 6 6 6 6 7 7 7 6 6 6 6
6 7 7 6 6 6 7 6 5 5 5 5 5 6 6 6 6 5 6 6 7 7 7 6 5 5 6 6 5 4 3 3 3 3 2 3 4 6 7 7 7 7 8 8 8 8 8 7 7 7 6 6 6 7 7 8 8 8 8 9 8 7 6 6 8 9 9 8 8 8 9 9 8 8 7 7 7 6 6 7 7 7 7 6 6 6
7 7 7 6 6 6 6 6 6 6 6 6 7 7 7 7 7 7 7 7 8 8 7 7 7 7 7 6 6 5 5 5 4 4 3 3 3 4 4 4 4 5 5 5 6 6 6 6 7 8 7 7 7 6 6 7 7 8 8 8 8 7 6 7 7 8 9 8 8 9 10 9 9 8 8 7 7 6 5 5 6 6 7 7 6 6
8 8 8 7 7 7 7 7 7 7 7 8 8 7 8 8 8 7 7 7 7 7 7 7 7 7 7 7 7 7 7 6 6 5 4 4 3 3 3 2 2 2 2 2 2 2 2 3 5 6 8 8 7 7 7 7 7 7 8 8 8 8 7 7 7 8 8 8 9 10 11 10 10 9 9 8 6 6 5 5 5 5 5 6 6 6
7 8 8 7 8 8 8 7 7 7 8 8 8 8 8 8 8 8 6 6 6 6 6 6 7 7 7 7 7 7 7 6 6 5 5 4 4 3 3 3 3 3 3 3 3 3 3 3 2 2 2 4 6 7 7 7 7 7 7 7 7 7 7 7 7 7 7 8 9 10 10 9 9 9 9 9 8 7 6 6 5 4 4 5 6 6
7 8 8 7 7 8 8 8 8 8 8 8 8 8 8 8 7 7 6 6 6 6 6 7 7 7 7 7 7 7 6 6 5 5 5 4 4 4 4 4 4 4 4 3 3 2 2 3 3 3 3 2 1 4 7 7 7 6 6 6 6 7 7 6 6 7 7 8 9 10 10 8 7 7 8 9 9 8 7 6 5 5 4 4 5 5
8 8 8 8 8 8 8 8 8 8 8 9 9 9 8 7 6 6 6 6 6 6 7 7 7 7 7 7 7 7 6 6 6 6 5 5 5 5 5 6 6 5 5 4 3 3 2 2 1 1 2 2 2 1 5 7 8 7 6 6 6 6 6 6 6 7 8 8 8 8 9 8 7 7 8 8 9 8 8 7 7 6 5 5 5 5
Wind_Direction
248 256 263 228 233 242 234 208 207 210 211 202 198 196 184 180 179 179 177 176 173 170 166 163 160 156 151 147 147 151 156 159 163 168 177 194 212 230 244 253 259 261 258 251 244 237 231 227 224 222 220 221 222 222 223 222 219 216 214 212 209 205 203 201 200 198 197 196 196 198 200 205 209 208 198 194 194 198 203 196 184 172 164 162 162 162
234 246 253 221 224 235 248 208 203 209 217 206 198 191 186 183 181 179 179 177 175 171 169 164 163 163 161 162 166 172 177 181 186 193 203 213 223 232 240 247 253 256 258 257 251 243 234 227 222 219 217 217 218 220 222 221 219 217 215 213 211 208 205 204 202 200 197 195 193 193 193 196 198 199 197 193 193 193 192 185 176 168 164 162 161 159
209 227 231 217 220 231 247 222 213 214 225 215 202 192 191 190 187 183 182 182 182 182 186 188 185 184 182 185 192 199 204 208 215 220 225 229 233 236 239 243 246 250 253 254 252 247 238 229 222 217 214 213 214 217 220 220 219 217 215 214 212 209 206 204 202 200 196 191 186 183 182 185 189 195 199 198 196 193 189 179 172 167 164 163 161 159
205 219 222 216 224 234 242 233 224 219 227 223 211 202 202 203 198 189 182 181 183 190 199 208 214 216 209 209 214 221 227 232 236 238 239 240 240 240 241 241 242 244 246 248 248 246 241 233 225 218 214 212 212 214 217 219 219 218 216 214 211 207 203 200 198 195 190 181 173 168 167 173 182 193 203 203 200 195 187 178 171 167 166 165 163 161
223 216 213 213 227 236 237 232 224 220 222 223 219 216 216 217 209 192 179 189 200 208 207 213 223 229 231 233 236 239 243 246 247 248 247 246 245 244 243 242 241 241 241 242 242 242 240 235 229 223 217 214 212 212 214 217 218 217 216 213 209 204 198 195 191 187 179 170 163 161 162 165 173 187 203 207 205 198 190 180 173 170 169 169 167 165
239 216 201 212 226 234 230 220 215 216 218 220 221 221 224 225 221 207 198 212 220 222 215 211 219 230 239 244 247 249 251 252 253 253 251 250 248 247 245 244 242 241 240 239 239 238 238 236 232 227 223 218 215 213 213 215 216 216 214 211 206 200 193 189 185 179 172 166 162 161 161 160 161 167 185 204 206 202 194 183 177 174 173 173 172 170
248 219 190 219 231 235 228 219 213 213 214 216 219 222 227 229 230 229 228 228 229 230 230 230 232 237 242 243 246 249 252 254 254 254 253 251 250 248 246 245 243 242 241 239 238 237 237 235 233 230 226 222 219 216 215 215 215 215 213 209 203 196 189 184 179 174 169 166 165 164 161 157 152 148 147 169 193 199 195 187 182 178 177 177 176 174
254 233 204 224 232 237 234 227 220 217 218 219 220 221 223 225 227 231 235 236 235 233 234 241 242 240 237 236 238 241 246 251 252 252 252 251 249 247 246 245 244 243 242 240 239 238 237 236 234 232 229 225 222 219 217 216 215 214 211 206 200 193 185 179 174 170 168 167 167 166 163 157 150 142 133 128 143 171 186 186 183 181 180 179 178 176
258 253 236 225 226 233 241 231 219 213 217 225 229 231 231 229 227 224 227 233 231 226 226 238 245 244 235 225 225 231 238 243 245 247 250 248 247 246 245 245 244 243 242 242 241 240 239 238 236 234 231 227 224 221 219 217 215 213 209 203 197 189 181 175 171 168 168 169 169 168 166 160 153 144 135 125 120 125 145 165 173 174 174 173 171 169
257 257 253 238 228 229 243 241 227 206 208 226 238 243 246 243 241 238 239 234 226 216 215 232 244 250 247 228 220 224 236 243 245 247 247 248 248 248 247 246 245 244 243 243 243 243 242 241 239 237 234 230 226 222 219 216 213 210 205 199 193 185 178 172 169 168 168 169 170 170 168 163 156 149 141 133 127 123 121 130 141 150 154 154 153 153
255 253 254 249 238 228 236 240 226 180 198 224 242 251 252 249 248 249 252 246 236 214 203 223 236 246 255 247 234 226 233 245 249 249 248 248 249 249 249 248 248 248 247 247 247 246 245 244 242 240 237 233 228 223 218 214 210 205 200 194 188 182 175 171 169 168 168 169 169 169 167 164 159 153 147 142 137 133 130 129 129 131 135 135 137 139
258 254 253 250 238 220 216 199 140 135 168 202 232 245 246 241 240 244 251 254 250 235 209 216 226 234 242 246 245 239 233 244 251 254 253 250 248 247 247 247 248 249 249 249 249 248 246 244 242 240 238 234 229 222 216 211 205 200 195 190 185 180 175 172 169 168 167 167 167 167 165 163 160 155 152 148 145 142 140 138 137 136 136 136 138 140
263 261 259 254 244 229 214 188 171 174 187 206 225 235 240 230 224 228 241 250 250 245 220 209 215 225 228 232 233 233 232 245 251 254 255 251 246 242 240 243 245 246 246 248 248 246 244 241 239 237 235 232 227 221 213 207 201 196 192 188 184 179 175 172 169 167 166 165 164 163 162 160 158 155 153 150 148 146 143 142 142 142 143 146 148 149
265 263 261 257 249 239 222 210 208 210 214 218 225 232 237 219 204 211 231 243 246 243 224 229 232 228 214 214 214 214 215 234 246 251 251 247 241 234 232 238 241 242 241 245 246 243 239 236 234 233 230 228 225 219 212 205 198 193 190 187 183 179 175 171 168 166 163 162 160 159 157 156 154 152 150 148 146 144 142 140 140 141 144 147 151 154
266 263 258 253 247 239 228 222 223 224 224 222 223 225 224 210 204 211 226 237 238 231 211 236 244 244 226 208 202 202 201 219 236 246 249 247 239 228 223 235 240 242 240 242 244 242 236 232 230 228 223 222 220 216 210 204 196 191 189 185 182 178 174 170 167 164 161 159 157 155 153 152 151 149 148 146 144 142 140 138 137 138 139 142 146 150
269 265 259 253 247 241 234 229 229 230 228 223 218 214 213 218 219 219 224 232 229 216 209 233 247 252 243 202 184 186 194 209 226 239 247 247 238 219 214 231 240 243 239 239 241 241 236 232 229 226 221 215 211 207 202 201 195 189 187 183 180 175 172 168 165 162 160 158 155 153 152 151 149 148 147 145 144 143 141 139 138 137 137 139 141 146
271 268 265 261 257 251 246 238 235 234 232 227 220 215 216 221 222 222 222 219 212 206 214 221 234 247 254 211 177 180 189 200 214 231 244 247 239 212 202 223 237 244 243 240 240 239 236 232 228 224 220 210 202 197 194 193 189 186 183 180 176 173 169 167 164 162 160 158 156 154 152 151 150 149 148 147 146 146 145 143 142 141 140 141 143 147
268 266 266 266 265 263 255 241 233 232 232 230 227 223 223 224 221 217 215 210 210 213 221 222 224 229 243 239 208 180 184 189 200 217 236 244 237 203 182 214 234 244 247 244 241 237 234 231 226 220 213 196 191 188 186 185 183 181 179 176 173 170 167 166 164 162 161 159 157 155 153 152 151 151 150 150 150 150 149 148 147 146 145 146 149 153
266 265 266 266 268 267 261 248 240 236 232 229 227 227 229 225 221 217 216 214 215 217 219 222 223 225 233 234 217 177 179 180 188 204 225 242 236 199 160 203 230 242 249 247 243 238 234 231 223 212 198 187 183 181 180 179 178 177 175 173 170 168 166 166 164 163 162 160 159 157 155 154 153 153 153 153 153 153 153 152 151 150 150 153 156 160
268 266 265 270 273 273 267 258 247 236 231 227 225 224 225 220 218 218 218 217 219 220 217 220 223 226 230 234 208 165 165 172 182 201 226 239 234 194 163 194 221 237 246 246 241 236 234 234 221 201 184 182 180 178 177 176 175 174 173 171 169 168 167 166 165 164 163 162 160 158 157 156 155 155 155 156 157 157 157 156 155 155 156 158 162 167
269 267 265 271 275 275 271 268 263 256 249 240 232 226 223 220 218 218 217 216 217 218 215 219 223 224 221 224 196 153 163 170 180 197 224 236 232 208 175 195 215 232 244 242 234 220 223 239 231 209 189 184 181 179 177 177 176 175 174 172 170 169 168 167 166 165 164 163 161 160 159 158 157 157 157 159 160 160 160 159 159 159 161 164 169 173
270 269 270 274 277 279 282 292 297 293 281 264 250 238 231 227 225 222 216 212 212 214 215 220 221 220 215 214 187 156 172 179 185 191 204 237 233 216 174 192 209 226 241 238 224 194 208 235 241 225 202 191 186 183 181 179 178 177 176 174 172 170 169 168 167 167 165 164 162 161 160 160 159 159 160 161 163 163 163 162 162 164 166 169 174 178
265 268 272 273 274 276 281 286 288 287 280 267 257 251 248 240 235 229 217 211 211 213 215 217 212 188 150 138 138 155 182 192 194 195 203 236 236 216 162 183 200 216 236 230 210 178 201 222 240 239 221 198 192 188 185 183 181 180 178 176 173 171 170 169 168 167 166 165 164 163 162 161 161 161 162 163 165 165 165 165 166 168 170 174 178 182
258 261 264 265 267 269 273 276 278 279 273 267 264 262 264 263 260 254 240 222 216 213 206 191 173 160 180 160 154 169 192 200 202 205 214 232 234 215 156 177 194 211 226 214 180 170 200 215 231 246 252 212 201 194 190 187 184 182 180 177 175 172 171 170 169 168 167 165 164 163 163 163 163 163 164 165 167 167 168 168 169 172 174 177 181 184
252 254 256 258 261 264 267 270 272 273 272 266 262 262 266 270 273 274 271 246 227 213 199 195 203 210 211 201 199 198 193 199 203 208 216 232 233 216 168 183 195 205 213 183 145 176 202 215 223 236 260 232 213 203 195 190 187 184 181 178 175 173 172 171 169 168 167 166 165 164 164 164 165 165 166 167 168 169 170 171 172 174 176 179 182 185
255 254 256 258 261 264 267 270 272 273 272 268 260 251 251 257 262 263 256 238 222 212 208 211 215 216 210 208 208 205 188 192 202 211 216 228 229 210 177 192 199 201 189 141 122 178 202 214 217 221 235 241 226 212 201 194 189 185 181 178 176 174 172 171 169 168 167 166 165 165 165 166 166 167 167 168 170 171 171 172 173 175 176 178 181 184
258 259 259 260 262 264 266 269 271 273 273 270 264 256 246 243 245 246 241 227 214 210 215 219 221 221 214 213 213 206 181 183 196 209 216 225 230 223 189 194 198 194 167 132 125 186 208 216 215 214 218 238 251 233 208 198 191 186 181 179 176 174 172 171 169 168 167 166 166 166 166 167 168 168 169 170 171 172 172 173 173 174 174 175 178 182
257 258 258 259 261 262 264 266 269 272 275 274 270 264 254 246 242 241 238 223 211 212 220 222 222 222 218 215 211 201 182 186 192 200 206 221 230 226 187 191 191 183 152 126 119 192 223 230 225 220 219 227 254 251 224 205 194 186 181 178 176 174 172 171 169 168 167 166 166 167 167 168 169 169 170 171 171 172 172 173 173 172 171 170 169 174
254 255 257 259 262 264 266 268 271 275 280 282 280 274 263 251 244 242 239 221 214 217 224 223 222 222 222 212 201 193 196 198 192 189 190 211 225 225 168 186 187 177 147 125 103 101 240 241 234 228 230 227 239 262 265 216 197 186 181 178 176 174 172 170 169 168 167 167 167 168 168 169 170 171 171 172 172 172 172 172 171 170 166 162 158 156
254 256 260 263 266 270 275 279 282 285 286 288 287 285 276 261 252 249 248 234 226 225 227 223 222 220 214 197 188 198 212 204 189 179 181 202 214 209 166 188 188 179 159 142 127 141 229 220 212 210 225 224 221 236 293 236 203 184 179 177 176 174 172 170 169 168 168 168 168 169 169 170 171 172 172 172 172 172 172 171 169 165 156 154 151 148
265 266 267 267 270 275 281 285 286 285 283 283 283 283 280 272 265 261 258 248 241 236 234 228 223 217 206 193 195 207 215 197 180 173 177 199 209 200 176 192 193 187 179 170 167 176 207 204 196 190 204 215 211 210 237 261 221 179 170 170 172 173 172 170 168 168 168 169 169 170 171 171 172 173 173 173 173 173 172 171 167 161 153 155 155 154
274 271 269 269 269 270 273 274 273 272 271 271 271 271 271 270 269 268 266 258 252 248 246 240 232 222 210 206 210 213 210 180 171 172 175 195 206 199 185 195 195 193 197 193 189 186 187 182 170 165 193 206 203 198 195 249 272 190 168 161 163 168 170 168 168 168 169 170 171 171 172 172 173 173 173 174 174 173 173 170 166 161 156 159 160 159
279 276 273 272 270 268 267 266 265 264 264 262 261 260 260 260 259 260 260 258 255 252 250 249 245 237 228 223 222 220 208 171 167 172 176 188 196 194 188 196 195 193 197 205 203 190 171 154 143 147 206 204 197 189 182 199 240 226 180 164 160 162 166 166 167 167 168 169 171 172 173 173 174 174 174 174 175 174 173 170 167 164 160 160 160 159
277 275 274 273 271 269 267 265 264 263 262 261 260 257 255 252 251 250 250 251 250 249 247 247 247 246 243 238 236 230 213 180 171 173 177 188 193 188 181 195 195 190 187 192 187 142 94 126 135 144 180 194 194 187 178 180 192 216 221 175 162 159 163 164 165 165 166 167 169 171 173 174 175 175 175 176 176 175 174 171 168 166 165 163 160 157
269 270 270 270 270 270 269 266 265 263 262 261 260 259 257 253 249 246 245 245 245 244 243 241 241 242 243 241 241 238 222 194 179 178 180 188 189 183 183 197 195 188 186 189 183 169 149 152 158 159 148 161 179 188 176 167 164 184 265 202 172 163 162 162 161 161 161 163 165 167 170 171 174 176 176 177 177 177 175 172 170 168 168 167 164 161
266 266 266 267 267 268 268 266 265 264 263 262 261 260 259 256 252 247 243 242 242 241 240 237 235 235 236 237 240 240 232 193 180 182 186 187 185 183 190 198 193 188 189 191 189 184 177 169 168 165 153 155 167 178 173 151 136 140 246 228 189 171 164 161 159 159 158 160 163 165 166 168 171 174 175 177 178 177 175 173 171 170 170 170 169 167
268 268 267 266 266 267 267 267 266 265 264 264 263 262 261 260 256 251 245 242 240 240 239 236 234 231 229 232 236 239 236 200 185 187 190 187 185 187 194 194 191 189 192 191 190 187 182 173 172 176 177 172 171 170 166 157 157 170 197 209 200 181 168 162 160 160 160 161 162 163 164 165 168 169 171 175 176 176 175 174 173 172 172 172 172 171
266 266 265 264 264 264 266 265 264 264 264 264 264 264 265 264 262 259 254 247 242 239 237 235 233 231 229 229 232 235 235 217 201 194 192 188 187 191 195 190 190 192 196 192 187 184 182 180 182 188 197 191 181 171 162 163 171 181 188 189 195 191 176 166 164 164 164 162 161 161 162 163 163 164 166 171 173 173 174 174 173 173 173 173 174 174
265 264 263 261 260 260 260 261 261 262 263 263 263 265 267 267 266 264 261 257 250 244 238 236 235 234 230 229 230 231 231 219 204 196 194 192 191 193 194 190 191 193 196 193 189 186 186 188 189 191 192 187 180 173 167 168 173 176 173 168 183 209 202 176 170 168 166 163 161 161 161 162 162 163 164 167 168 170 171 171 171 171 170 172 174 176
266 265 263 261 259 258 257 258 259 260 261 262 264 266 268 269 267 265 262 261 258 254 249 245 244 243 240 235 233 233 233 223 207 197 196 196 195 195 195 193 190 188 188 191 190 189 190 194 196 195 191 183 175 171 171 174 174 171 164 165 178 194 196 185 176 171 167 165 164 163 162 162 164 166 168 170 172 172 172 170 169 168 168 168 171 174
267 265 265 263 261 259 258 258 257 258 258 262 265 267 267 267 266 264 261 258 256 254 254 251 252 254 254 249 247 245 243 227 209 201 200 199 198 198 199 196 189 183 182 186 190 192 193 197 197 195 194 186 176 170 173 176 174 172 171 176 179 179 174 178 178 174 168 166 166 165 163 163 166 170 173 175 175 173 170 166 166 166 167 169 171 173
269 269 268 267 264 261 259 259 259 259 260 262 263 263 262 261 260 258 255 252 247 244 244 249 252 254 254 251 251 255 262 239 215 205 202 201 200 200 201 197 189 181 178 183 188 192 195 197 196 193 190 185 178 173 176 177 177 178 180 180 172 161 154 175 184 181 172 169 167 166 165 165 168 172 175 174 172 168 164 164 166 167 167 168 172 174
269 270 272 272 271 269 268 266 264 261 259 258 258 257 254 252 250 250 251 249 246 243 240 241 244 247 250 247 243 240 246 259 242 223 211 204 202 202 202 198 190 182 178 182 187 192 194 196 197 195 188 183 179 175 173 173 177 182 186 178 169 160 164 182 188 186 180 172 168 166 166 167 168 169 170 167 163 158 159 164 167 168 168 165 166 170
267 269 270 271 271 270 268 263 258 255 252 251 252 252 251 248 249 251 254 256 256 255 253 250 249 248 249 247 242 235 227 245 267 264 244 219 210 206 206 200 192 185 181 182 183 185 186 194 196 193 183 180 179 177 173 172 175 180 184 178 176 175 177 172 171 173 179 173 169 166 166 163 160 158 157 155 154 155 161 164 166 167 165 160 159 160
264 266 266 266 264 261 259 257 255 254 255 256 258 261 263 264 265 266 267 268 269 267 264 256 250 247 246 245 240 233 222 223 239 261 278 245 226 216 212 204 195 188 186 186 184 182 181 187 188 184 174 177 180 180 175 173 174 177 180 180 181 182 178 160 161 168 175 172 168 164 162 156 152 150 152 154 158 162 166 166 165 162 158 157 158 159
266 268 269 266 263 262 264 266 269 272 274 275 275 274 273 270 268 265 263 264 264 263 259 250 243 240 242 241 239 233 224 218 218 227 252 260 246 231 219 210 199 191 189 189 187 184 182 182 177 172 166 174 181 183 179 173 172 174 177 178 177 172 157 155 163 170 174 171 167 162 157 152 151 153 158 161 163 166 169 168 166 163 158 158 160 162
275 275 275 274 272 272 273 276 278 279 277 274 271 268 265 261 258 255 253 253 253 252 248 243 238 236 237 238 237 235 229 222 215 212 213 228 237 234 222 211 197 188 186 186 185 184 184 179 173 169 168 172 178 182 179 173 172 173 174 174 172 168 161 165 169 173 173 170 165 160 155 153 155 159 162 160 161 162 167 166 164 161 159 159 161 163
277 277 277 277 276 276 275 274 273 272 269 267 265 263 259 257 254 252 252 248 245 243 241 238 235 233 234 236 237 237 233 226 217 208 201 204 208 210 200 172 142 126 117 112 119 132 149 156 164 169 173 175 177 177 173 171 172 173 172 171 170 169 167 168 168 170 170 169 165 161 159 160 162 163 160 157 158 161 163 162 160 158 158 160 161 162
277 276 274 274 273 273 272 270 268 266 265 264 264 263 260 258 255 253 252 248 247 246 245 240 236 234 234 236 237 237 233 227 218 208 196 191 189 185 173 150 127 107 88 75 68 65 65 72 75 92 158 182 181 175 168 168 170 170 169 171 171 170 168 165 164 165 167 166 164 165 166 167 165 162 157 158 161 163 163 161 159 157 156 160 161 163
276 274 272 271 269 268 268 268 267 266 265 265 264 263 261 257 251 246 243 244 247 249 250 245 241 238 237 238 238 235 229 221 213 204 192 184 181 178 171 159 147 135 123 106 90 82 82 70 49 31 12 352 189 173 167 164 164 165 167 171 172 170 166 162 162 163 164 162 163 166 168 167 163 160 157 161 163 163 163 163 162 161 159 160 162 163
277 274 272 269 268 267 267 266 266 265 264 263 262 261 261 257 250 241 234 234 239 245 248 246 243 240 240 241 239 235 224 215 208 201 190 180 177 177 174 167 161 154 147 139 133 129 128 127 115 57 3 3 3 156 169 161 160 162 167 172 171 168 164 161 161 161 162 161 162 163 165 164 162 162 164 163 163 164 165 167 167 167 163 162 162 164